MHB YBAF-YBAF

Flight info

Callsign MHB
Flight time N/A
Altitude 1000
Route BCTY
Aircraft CA19/L-VGD/A

Departure

Time 2026-05-06 10:34
Airport Brisbane Archerfield Airport (YBAF)

Arrival

Time N/A
Airport Brisbane Archerfield Airport (YBAF)
Time Latitude Longitude Altitude Speed Heading
2026-05-06 10:29 -27.57642 153.01050 50 ft 3 kts 172°
2026-05-06 10:29 -27.57626 153.01102 47 ft 17 kts 10°
2026-05-06 10:29 -27.57519 153.01106 37 ft 11 kts 285°
2026-05-06 10:30 -27.57491 153.01011 37 ft 15 kts 289°
2026-05-06 10:30 -27.57456 153.00887 37 ft 18 kts 287°
2026-05-06 10:30 -27.57423 153.00773 40 ft 14 kts 289°
2026-05-06 10:30 -27.57387 153.00648 41 ft 20 kts 288°
2026-05-06 10:31 -27.57349 153.00505 41 ft 15 kts 291°
2026-05-06 10:31 -27.57338 153.00475 42 ft 13 kts 288°
2026-05-06 10:31 -27.57271 153.00226 45 ft 36 kts 283°
2026-05-06 10:31 -27.57244 153.00188 44 ft 3 kts 290°
2026-05-06 10:32 -27.57217 153.00050 45 ft 27 kts 288°
2026-05-06 10:32 -27.57200 152.99989 45 ft 26 kts 291°
2026-05-06 10:32 -27.57168 152.99880 44 ft 24 kts 285°
2026-05-06 10:33 -27.57119 152.99715 44 ft 20 kts 290°
2026-05-06 10:33 -27.57047 152.99667 45 ft 14 kts 12°
2026-05-06 10:33 -27.57032 152.99716 45 ft 0 kts 108°
2026-05-06 10:34 -27.57032 152.99718 45 ft 3 kts 108°
2026-05-06 10:34 -27.57103 152.99887 43 ft 44 kts 114°
2026-05-06 10:34 -27.57275 153.00549 53 ft 141 kts 110°
2026-05-06 10:34 -27.57615 153.01698 701 ft 160 kts 111°
2026-05-06 10:35 -27.58007 153.02987 999 ft 193 kts 110°
2026-05-06 10:35 -27.58448 153.04527 1026 ft 216 kts 114°
2026-05-06 10:35 -27.59015 153.06145 1050 ft 227 kts 111°
2026-05-06 10:35 -27.59222 153.07874 1079 ft 231 kts 70°
2026-05-06 10:36 -27.58087 153.09115 1040 ft 235 kts 27°
2026-05-06 10:36 -27.56576 153.09796 968 ft 239 kts 18°
2026-05-06 10:36 -27.55048 153.09726 870 ft 237 kts 318°
2026-05-06 10:36 -27.53847 153.08465 953 ft 235 kts 313°
2026-05-06 10:37 -27.52857 153.06994 948 ft 239 kts 300°
2026-05-06 10:37 -27.52068 153.05339 952 ft 240 kts 295°
2026-05-06 10:37 -27.51132 153.03795 939 ft 241 kts 320°
2026-05-06 10:37 -27.49572 153.03208 858 ft 244 kts
2026-05-06 10:38 -27.47902 153.03355 988 ft 240 kts
2026-05-06 10:38 -27.46223 153.03446 967 ft 241 kts 352°
2026-05-06 10:38 -27.45822 153.01996 964 ft 235 kts 236°
2026-05-06 10:38 -27.47147 153.01541 920 ft 236 kts 153°
2026-05-06 10:39 -27.48349 153.02699 1005 ft 235 kts 99°
2026-05-06 10:39 -27.47328 153.03768 1022 ft 233 kts 354°
2026-05-06 10:39 -27.45975 153.03001 942 ft 229 kts 270°
2026-05-06 10:39 -27.46783 153.01438 664 ft 243 kts 230°
2026-05-06 10:40 -27.47923 152.99981 485 ft 248 kts 219°
2026-05-06 10:40 -27.49089 153.00095 444 ft 230 kts 92°
2026-05-06 10:40 -27.49368 153.01821 481 ft 234 kts 139°
2026-05-06 10:40 -27.50377 153.01276 545 ft 225 kts 260°
2026-05-06 10:41 -27.51106 152.99841 554 ft 230 kts 191°
2026-05-06 10:41 -27.51999 153.00968 459 ft 211 kts 198°
2026-05-06 10:41 -27.52307 152.99494 887 ft 159 kts 240°
2026-05-06 10:41 -27.53386 152.99328 1341 ft 189 kts 159°
2026-05-06 10:42 -27.54707 152.99829 1450 ft 213 kts 162°
2026-05-06 10:42 -27.56158 153.00335 1543 ft 223 kts 163°
2026-05-06 10:42 -27.57673 153.00881 1515 ft 233 kts 158°
2026-05-06 10:42 -27.59134 153.01707 1532 ft 235 kts 152°
2026-05-06 10:43 -27.60553 153.02588 1606 ft 232 kts 148°
2026-05-06 10:43 -27.61947 153.03566 1619 ft 234 kts 146°
2026-05-06 10:43 -27.63278 153.04662 1566 ft 239 kts 141°
2026-05-06 10:44 -27.65813 153.07120 1540 ft 241 kts 128°
2026-05-06 10:44 -27.66499 153.08876 1343 ft 246 kts 107°
2026-05-06 10:44 -27.66932 153.10727 1244 ft 249 kts 103°
2026-05-06 10:44 -27.67294 153.12636 1267 ft 243 kts 100°
2026-05-06 10:45 -27.67613 153.14463 1303 ft 240 kts 101°
2026-05-06 10:45 -27.67914 153.16329 1271 ft 242 kts 97°
2026-05-06 10:45 -27.68101 153.18196 1421 ft 237 kts 95°
2026-05-06 10:45 -27.68266 153.20047 1512 ft 238 kts 95°
2026-05-06 10:46 -27.68479 153.21905 1488 ft 241 kts 99°
2026-05-06 10:46 -27.68903 153.23745 1419 ft 244 kts 107°
2026-05-06 10:46 -27.69435 153.25594 1351 ft 245 kts 109°
2026-05-06 10:46 -27.70056 153.27335 1526 ft 218 kts 111°
2026-05-06 10:47 -27.70533 153.28756 1382 ft 209 kts 109°
2026-05-06 10:47 -27.70650 153.29010 3044 ft 107 kts 283°
2026-05-06 10:47 -27.71214 153.29974 914 ft 244 kts 119°
2026-05-06 10:47 -27.72070 153.31616 1036 ft 216 kts 120°
2026-05-06 10:48 -27.71419 153.32554 1991 ft 142 kts 66°
2026-05-06 10:48 -27.71671 153.33728 563 ft 234 kts 115°
2026-05-06 10:48 -27.72214 153.35361 1222 ft 209 kts 110°
2026-05-06 10:48 -27.72729 153.36999 1058 ft 231 kts 113°
2026-05-06 10:49 -27.73579 153.38518 1120 ft 234 kts 130°
2026-05-06 10:49 -27.74567 153.39981 1204 ft 235 kts 126°
2026-05-06 10:49 -27.75662 153.41340 1320 ft 235 kts 135°
2026-05-06 10:49 -27.76906 153.42564 1342 ft 236 kts 142°
2026-05-06 10:50 -27.78323 153.43503 1304 ft 242 kts 155°
2026-05-06 10:50 -27.79998 153.43921 971 ft 252 kts 176°
2026-05-06 10:50 -27.81727 153.43863 1023 ft 246 kts 185°
2026-05-06 10:50 -27.83409 153.43666 1128 ft 242 kts 186°
2026-05-06 10:51 -27.84817 153.43474 953 ft 163 kts 189°
2026-05-06 10:51 -27.86124 153.43254 676 ft 211 kts 190°
2026-05-06 10:51 -27.87647 153.42961 555 ft 230 kts 185°
2026-05-06 10:51 -27.89188 153.42910 948 ft 217 kts 178°
2026-05-06 10:52 -27.90710 153.42972 1104 ft 223 kts 175°
2026-05-06 10:52 -27.92298 153.43136 952 ft 236 kts 172°
2026-05-06 10:52 -27.93933 153.43313 897 ft 240 kts 176°
2026-05-06 10:52 -27.95607 153.43346 915 ft 240 kts 179°
2026-05-06 10:53 -27.97282 153.43416 885 ft 242 kts 176°
2026-05-06 10:53 -27.98961 153.43468 905 ft 242 kts 178°
2026-05-06 10:53 -28.00643 153.43515 904 ft 243 kts 178°
2026-05-06 10:53 -28.02329 153.43673 868 ft 244 kts 169°
2026-05-06 10:54 -28.03940 153.44235 846 ft 241 kts 134°
2026-05-06 10:54 -28.03418 153.45482 1040 ft 222 kts 352°
2026-05-06 10:54 -28.02902 153.44223 1261 ft 216 kts 223°
2026-05-06 10:54 -28.03759 153.44921 1206 ft 216 kts 56°
2026-05-06 10:55 -28.03086 153.44234 858 ft 219 kts 219°
2026-05-06 10:55 -28.04540 153.44403 856 ft 226 kts 164°
2026-05-06 10:55 -28.06059 153.44893 1038 ft 227 kts 162°
2026-05-06 10:55 -28.07595 153.45436 1002 ft 236 kts 161°
2026-05-06 10:56 -28.09176 153.46011 1003 ft 240 kts 159°
2026-05-06 10:56 -28.10658 153.46903 946 ft 243 kts 150°
2026-05-06 10:56 -28.12150 153.47843 837 ft 247 kts 150°
2026-05-06 10:56 -28.13658 153.48795 735 ft 249 kts 150°
2026-05-06 10:57 -28.15189 153.49757 425 ft 257 kts 150°
2026-05-06 10:57 -28.16777 153.50761 86 ft 259 kts 150°
2026-05-06 10:57 -28.16560 153.51934 879 ft 180 kts 13°
2026-05-06 10:57 -28.15497 153.51514 789 ft 162 kts 331°
2026-05-06 10:58 -28.14555 153.50900 844 ft 143 kts 322°
2026-05-06 10:58 -28.14341 153.50065 512 ft 113 kts 233°
2026-05-06 10:58 -28.15011 153.49725 222 ft 103 kts 171°
2026-05-06 10:58 -28.15629 153.50056 35 ft 90 kts 149°
2026-05-06 10:59 -28.16017 153.50308 23 ft 49 kts 152°
2026-05-06 10:59 -28.16316 153.50494 22 ft 47 kts 150°
2026-05-06 10:59 -28.16573 153.50655 24 ft 36 kts 150°
2026-05-06 10:59 -28.16762 153.50781 25 ft 27 kts 149°
2026-05-06 11:00 -28.16910 153.50875 25 ft 21 kts 151°
2026-05-06 11:00 -28.16957 153.50924 27 ft 13 kts 63°
2026-05-06 11:00 -28.16906 153.51030 23 ft 1 kts 64°
2026-05-06 11:01 -28.16901 153.51039 23 ft 4 kts 45°
2026-05-06 11:01 -28.16813 153.51027 23 ft 24 kts 329°
2026-05-06 11:02 -28.16658 153.50928 23 ft 24 kts 332°
2026-05-06 11:02 -28.16519 153.50838 23 ft 22 kts 330°
2026-05-06 11:02 -28.16444 153.50790 22 ft 0 kts 330°
2026-05-06 11:07 -28.16443 153.50790 22 ft 0 kts 331°
2026-05-06 11:10 -28.16441 153.50788 22 ft 0 kts 330°
2026-05-06 11:19 -28.16367 153.50742 22 ft 26 kts 331°
2026-05-06 11:19 -28.16175 153.50616 22 ft 29 kts
2026-05-06 11:19 -28.16153 153.50604 22 ft 8 kts 331°
2026-05-06 11:19 -28.16010 153.50514 22 ft 36 kts 330°
2026-05-06 11:20 -28.15780 153.50367 22 ft 36 kts 330°
2026-05-06 11:20 -28.15620 153.50259 22 ft 12 kts 313°
2026-05-06 11:20 -28.15607 153.50191 22 ft 0 kts 193°
2026-05-06 11:21 -28.15608 153.50191 22 ft 0 kts 201°
2026-05-06 11:21 -28.15615 153.50175 23 ft 14 kts 248°
2026-05-06 11:21 -28.15675 153.50085 23 ft 0 kts 150°
2026-05-06 11:21 -28.15676 153.50085 23 ft 0 kts 150°
2026-05-06 11:23 -28.15846 153.50189 26 ft 74 kts 143°
2026-05-06 11:23 -28.16508 153.50615 42 ft 138 kts 149°
2026-05-06 11:24 -28.17397 153.51180 404 ft 142 kts 149°
2026-05-06 11:24 -28.18090 153.51945 811 ft 144 kts 109°
2026-05-06 11:24 -28.17983 153.53033 899 ft 136 kts 55°
2026-05-06 11:24 -28.17242 153.53476 950 ft 124 kts 353°
2026-05-06 11:25 -28.16448 153.53090 866 ft 122 kts 331°
2026-05-06 11:25 -28.15701 153.52642 855 ft 117 kts 332°
2026-05-06 11:25 -28.15008 153.52194 827 ft 119 kts 325°
2026-05-06 11:25 -28.14293 153.51635 810 ft 128 kts 325°
2026-05-06 11:26 -28.13726 153.51005 743 ft 105 kts 275°
2026-05-06 11:26 -28.14079 153.50300 627 ft 106 kts 221°
2026-05-06 11:26 -28.14632 153.49759 546 ft 105 kts 213°
2026-05-06 11:26 -28.15273 153.49826 168 ft 104 kts 149°
2026-05-06 11:27 -28.15850 153.50196 24 ft 70 kts 152°
2026-05-06 11:27 -28.16273 153.50468 23 ft 88 kts 153°
2026-05-06 11:27 -28.16838 153.50815 112 ft 92 kts 150°
2026-05-06 11:27 -28.17389 153.51143 234 ft 88 kts 149°
2026-05-06 11:28 -28.17874 153.51647 567 ft 109 kts 117°
2026-05-06 11:28 -28.17879 153.52638 882 ft 152 kts 64°
2026-05-06 11:28 -28.16967 153.53433 941 ft 193 kts
2026-05-06 11:28 -28.16065 153.53196 972 ft 208 kts 331°
2026-05-06 11:29 -28.14735 153.52357 1018 ft 222 kts 329°
2026-05-06 11:29 -28.13387 153.51478 1012 ft 230 kts 327°
2026-05-06 11:29 -28.12740 153.50319 842 ft 131 kts 259°
2026-05-06 11:29 -28.13276 153.49686 551 ft 110 kts 200°
2026-05-06 11:30 -28.13977 153.49436 381 ft 102 kts 187°
2026-05-06 11:30 -28.14673 153.49497 232 ft 101 kts 162°
2026-05-06 11:30 -28.15297 153.49842 108 ft 99 kts 149°
2026-05-06 11:30 -28.15865 153.50202 24 ft 74 kts 152°
2026-05-06 11:31 -28.16409 153.50554 31 ft 87 kts 150°
2026-05-06 11:31 -28.17050 153.50956 392 ft 124 kts 151°
2026-05-06 11:31 -28.17524 153.51401 718 ft 146 kts 122°
2026-05-06 11:31 -28.17641 153.52632 984 ft 182 kts 70°
2026-05-06 11:32 -28.16583 153.53214 931 ft 208 kts 332°
2026-05-06 11:32 -28.15260 153.52428 1017 ft 220 kts 332°
2026-05-06 11:32 -28.14067 153.51505 1170 ft 173 kts 291°
2026-05-06 11:32 -28.14409 153.50570 851 ft 121 kts 214°
2026-05-06 11:33 -28.15073 153.50073 284 ft 103 kts 205°
2026-05-06 11:33 -28.15694 153.50096 28 ft 88 kts 150°
2026-05-06 11:33 -28.16114 153.50373 23 ft 66 kts 147°
2026-05-06 11:33 -28.16749 153.50759 55 ft 132 kts 149°
2026-05-06 11:34 -28.17548 153.51281 518 ft 131 kts 148°
2026-05-06 11:34 -28.18187 153.51993 855 ft 139 kts 104°
2026-05-06 11:34 -28.17821 153.53006 1000 ft 170 kts 26°
2026-05-06 11:34 -28.16596 153.52690 908 ft 209 kts 331°
2026-05-06 11:35 -28.15274 153.51920 1077 ft 218 kts 332°
2026-05-06 11:35 -28.14044 153.51008 1022 ft 188 kts 292°
2026-05-06 11:35 -28.14413 153.49861 540 ft 142 kts 210°
2026-05-06 11:35 -28.15229 153.49809 111 ft 108 kts 152°
2026-05-06 11:36 -28.15838 153.50187 31 ft 84 kts 150°
2026-05-06 11:36 -28.16279 153.50477 23 ft 97 kts 151°
2026-05-06 11:36 -28.17180 153.51049 107 ft 175 kts 149°
2026-05-06 11:36 -28.17804 153.52059 587 ft 185 kts 89°
2026-05-06 11:37 -28.16894 153.52978 544 ft 211 kts 347°
2026-05-06 11:37 -28.15919 153.51624 404 ft 228 kts 301°
2026-05-06 11:37 -28.14865 153.50319 449 ft 233 kts 324°
2026-05-06 11:37 -28.13464 153.49373 494 ft 235 kts 328°
2026-05-06 11:38 -28.12324 153.48092 424 ft 238 kts 307°
2026-05-06 11:38 -28.10963 153.47073 487 ft 237 kts 339°
2026-05-06 11:38 -28.09448 153.46359 529 ft 239 kts 327°
2026-05-06 11:38 -28.08024 153.45358 441 ft 240 kts 334°
2026-05-06 11:39 -28.06481 153.44834 490 ft 225 kts 345°
2026-05-06 11:39 -28.04984 153.44407 467 ft 220 kts 345°
2026-05-06 11:39 -28.03522 153.44010 546 ft 213 kts 347°
2026-05-06 11:39 -28.02045 153.43771 494 ft 214 kts 353°
2026-05-06 11:40 -28.00564 153.43608 442 ft 215 kts 353°
2026-05-06 11:40 -27.99104 153.43437 428 ft 213 kts 353°
2026-05-06 11:40 -27.97630 153.43302 403 ft 213 kts 356°
2026-05-06 11:40 -27.96182 153.43279 602 ft 196 kts 360°
2026-05-06 11:41 -27.94758 153.43246 454 ft 207 kts 358°
2026-05-06 11:41 -27.93320 153.43191 490 ft 207 kts 356°
2026-05-06 11:41 -27.91872 153.43115 469 ft 209 kts 357°
2026-05-06 11:41 -27.90420 153.43061 467 ft 209 kts 359°
2026-05-06 11:42 -27.88977 153.43106 498 ft 208 kts
2026-05-06 11:42 -27.87526 153.43222 465 ft 209 kts
2026-05-06 11:42 -27.86070 153.43333 430 ft 210 kts
2026-05-06 11:42 -27.84617 153.43543 425 ft 210 kts
2026-05-06 11:43 -27.83174 153.43746 465 ft 208 kts
2026-05-06 11:43 -27.81717 153.43930 847 ft 167 kts
2026-05-06 11:43 -27.81133 153.43104 1554 ft 174 kts 265°
2026-05-06 11:44 -27.82655 153.40570 1484 ft 221 kts 213°
2026-05-06 11:44 -27.84057 153.39718 1313 ft 235 kts 206°
2026-05-06 11:44 -27.85498 153.38926 1464 ft 230 kts 203°
2026-05-06 11:44 -27.86994 153.38228 1552 ft 232 kts 199°
2026-05-06 11:45 -27.88543 153.37580 1246 ft 246 kts 201°
2026-05-06 11:45 -27.90087 153.36728 1078 ft 241 kts 208°
2026-05-06 11:45 -27.91482 153.35863 1004 ft 210 kts 205°
2026-05-06 11:45 -27.92718 153.35157 1055 ft 190 kts 200°
2026-05-06 11:46 -27.93652 153.35605 986 ft 120 kts 108°
2026-05-06 11:46 -27.93528 153.36307 505 ft 85 kts 49°
2026-05-06 11:46 -27.93043 153.36663 176 ft 89 kts 24°
2026-05-06 11:46 -27.92488 153.36955 30 ft 78 kts 22°
2026-05-06 11:47 -27.92121 153.37146 15 ft 41 kts 27°
2026-05-06 11:47 -27.91930 153.37253 15 ft 23 kts 41°
2026-05-06 11:47 -27.91847 153.37345 13 ft 12 kts 114°
2026-05-06 11:47 -27.91922 153.37346 13 ft 14 kts 208°
2026-05-06 11:48 -27.92036 153.37287 13 ft 22 kts 207°
2026-05-06 11:48 -27.92166 153.37216 13 ft 19 kts 206°
2026-05-06 11:48 -27.92270 153.37160 14 ft 7 kts 203°
2026-05-06 11:48 -27.92275 153.37158 14 ft 0 kts 263°
2026-05-06 11:49 -27.92274 153.37164 13 ft 2 kts 275°
2026-05-06 11:49 -27.92279 153.37176 13 ft 0 kts 292°